Location: Altmatt
(47.1333°N, 8.7000°E)
Time: 23:08:29
(UTC+00:00)

Daily predictions for brighter satellites

Satellite Brightness Start Highest point End
(mag) Time Altitude Azimuth Time Altitude Azimuth Time Altitude Azimuth
Cosmos 2181 Rocket 4.1 19:48:18 10° N 19:54:36 66° ENE 20:00:44 10° SSE
Cosmos 2369 Rocket 4.4 19:54:54 10° N 19:57:17 13° NNE 19:59:40 10° ENE
NOSS 3-4 (A) 4.0 19:51:22 10° NW 19:58:16 69° NE 20:05:54 10° SE
NOSS 3-4 (C) 4.1 19:51:28 10° NW 19:58:23 68° NE 20:06:01 10° SE
IGS 5A 4.1 19:54:55 10° SE 19:58:49 41° ENE 20:02:44 10° N
CZ-2C R/B 4.2 19:57:02 10° N 20:01:50 73° WNW 20:06:33 10° SSW
Genesis I 3.2 19:58:22 10° SSW 20:02:12 60° ESE 20:06:03 10° NE
Cosmos 1980 3.9 19:58:19 10° S 20:03:42 48° ESE 20:09:07 10° NE
CZ-2C R/B 3.4 20:00:27 10° N 20:05:40 56° WNW 20:10:46 10° SSW
Meteor 1-11 4.3 20:01:23 10° S 20:07:03 88° W 20:12:50 10° N
NOSS 3-3 (A) 4.4 20:01:56 10° SW 20:07:50 69° NW 20:14:33 10° NE
NOSS 3-3 (C) 4.4 20:02:01 10° SW 20:07:54 70° NW 20:14:39 10° NE
DELTA 2 R/B (1) 4.2 20:03:22 10° WSW 20:08:30 39° S 20:13:38 10° ESE
Cosmos 2219 Rocket 2.8 20:04:38 10° SW 20:10:10 63° WNW 20:15:46 10° NNE
Cosmos 1680 Rocket 3.9 20:07:00 10° S 20:11:59 43° ESE 20:17:01 10° NE
Cosmos 2058 4.0 20:09:24 10° SSE 20:12:55 27° E 20:16:25 10° NNE
Cosmos 1315 Rocket 3.0 20:10:07 10° NNW 20:14:15 81° W 20:18:23 10° S
Cosmos 44 3.7 20:14:02 10° S 20:17:51 32° ESE 20:21:47 10° NE
Cosmos 2237 Rocket 2.3 20:14:20 10° S 20:19:55 61° ESE 20:25:33 10° NNE
Geosat 4.1 20:15:35 10° SSE 20:20:37 77° WSW 20:25:41 10° NNW
CREW DRAGON DEMO-1 DEB 3.7 20:19:42 10° W 20:22:44 53° NNW 20:25:45 10° ENE
Gbstr 26 Del rocket 3.2 20:19:56 10° SSW 20:23:21 33° SE 20:26:45 10° ENE
EP 3 3.5 20:23:09 10° SSW 20:25:12 53° SE 20:27:09 10° NE
ATLAS 2AS CENTAUR R/B 2.9 20:18:04 10° NW 20:25:45 86° NE 20:32:11 13° SE
Cosmos 1943 Rocket 3.9 20:22:32 10° N 20:27:01 23° NE 20:31:27 10° E
COSMOS 2428 3.7 20:22:52 10° SW 20:28:25 53° WNW 20:33:59 10° NNE
Cosmos 158 Rocket 3.9 20:25:04 10° S 20:29:48 55° ESE 20:34:39 10° NNE
Cosmos 923 Rocket 4.0 20:27:16 10° SSW 20:32:31 83° ESE 20:37:52 10° NNE
USA 215 4.4 20:28:59 10° E 20:33:21 19° ESE 20:37:39 10° SSE
COSMOS 2455 4.0 20:29:42 10° NNW 20:35:12 35° NE 20:40:41 10° ESE
Lacrosse 5 rocket 2.7 20:32:10 10° NW 20:35:58 33° NNE 20:39:33 10° E
Landsat 7 3.9 20:32:07 10° SSE 20:36:53 83° WSW 20:41:41 10° NNW
ATLAS CENTAUR R/B 3.9 20:38:57 10° WSW 20:39:25 10° WSW 20:39:53 10° WSW
USA 81 4.4 20:34:43 10° SSW 20:39:57 68° W 20:45:15 10° N
Cosmos 1892 2.8 20:36:44 12° S 20:40:10 54° E 20:43:55 10° NNE
ERS-1 Rocket 3.1 20:36:30 14° SSE 20:40:48 63° ENE 20:45:48 10° N
ISS -2.4 20:38:35 10° S 20:41:01 19° SE 20:43:28 10° E
Resurs 01 Rocket 3.3 20:40:44 10° SSW 20:44:36 30° W 20:48:30 10° NNW
CZ-4C R/B 4.0 20:41:22 10° NNW 20:47:37 36° NNE 20:54:49 10° E
Meteor 2-2 Rocket 4.3 20:42:28 10° NNW 20:48:15 82° W 20:53:31 12° S
Cosmos 1624 Rocket 4.1 20:43:09 10° NNW 20:48:23 69° ENE 20:52:18 18° SSE
SPOT 1/Viking Rocket 3.6 20:43:55 12° S 20:48:45 80° WSW 20:53:58 10° NNW
NOSS 0 Rocket 4.3 20:44:04 10° SW 20:50:11 70° WNW 20:56:24 10° NNE
Cosmos 2184 Rocket 4.0 20:44:55 10° S 20:51:11 86° E 20:57:35 10° N
Cosmos 371 Rocket 4.3 20:46:46 10° N 20:51:15 36° ENE 20:54:35 16° ESE
Cosmos 1842 Rocket 4.1 20:47:04 10° NNW 20:51:20 56° W 20:55:33 10° S
Cosmos 2333 Rocket 4.2 20:48:05 10° WSW 20:53:10 32° NW 20:58:17 10° NNE
Aureole 2 Rocket 2.3 20:51:08 10° NNW 20:54:04 55° ENE 20:55:36 25° SE
Cosmos 2278 Rocket 3.1 20:51:02 10° NW 20:56:22 43° WSW 21:01:29 11° S
Cosmos 2344 3.5 20:51:28 10° SSW 20:58:50 63° ESE 21:06:41 10° NE
Cosmos 1340 4.5 21:03:14 15° ESE 21:03:56 16° E 21:06:17 10° NE
Cosmos 2221 3.3 21:00:00 10° NNW 21:04:12 49° W 21:08:04 12° SSW
USA 267 4.3 21:01:07 10° E 21:07:13 44° NNE 21:13:20 10° NW
Cosmos 2297 3.8 21:01:52 10° NNW 21:07:38 74° ENE 21:11:31 21° SE
SPOT 5 2.8 21:04:58 19° SSE 21:08:31 85° WSW 21:13:09 10° NNW
Cosmos 1825 2.5 21:06:53 25° SSE 21:08:46 47° E 21:12:25 10° NNE
GEOS 3 Rocket 4.0 21:03:48 10° NE 21:08:59 46° ESE 21:14:07 10° SSW
SL-16 R/B 2.3 21:04:44 10° S 21:10:16 57° ESE 21:15:50 10° NE
In-Cosmos 22 Rocket 4.3 21:06:44 10° SSW 21:12:01 71° WNW 21:17:25 10° N
CARTOSAT-1 3.8 21:09:43 18° S 21:12:49 66° WSW 21:17:08 10° NNW
Cosmos 1408 2.4 21:13:28 21° S 21:15:46 89° ESE 21:19:22 10° N
Cosmos 1371 Rocket 4.4 21:13:37 10° NNW 21:18:51 61° WSW 21:22:29 20° S
Cosmos 2151 3.1 21:17:32 25° SSE 21:19:47 55° E 21:23:57 10° NNE
Nadezhda 3 Rocket 4.1 21:17:58 10° N 21:24:20 79° W 21:29:04 19° S
Terra 1.8 21:21:21 23° S 21:24:21 83° WSW 21:29:09 10° NNW
Cosmos 1420 Rocket 4.0 21:20:06 10° NNW 21:25:25 76° ENE 21:28:29 26° SSE
Cosmos 1346 Rocket 4.4 21:26:44 18° E 21:27:16 18° E 21:30:02 10° NE
BREEZE-M DEB (TANK) 1.8 21:25:11 10° WNW 21:30:07 81° NNE 21:31:17 31° E
Cosmos 2154 Rocket 4.2 21:26:33 11° SSW 21:32:35 73° W 21:38:51 10° N
JB-3 4.3 21:29:29 10° NNE 21:33:16 61° E 21:34:44 34° SSE
Cosmos 1076 Rocket 4.4 21:29:52 10° SSW 21:33:58 46° WNW 21:38:05 10° N
SL-8 Rocket 4.2 21:34:05 25° SSE 21:37:36 54° E 21:43:34 10° NNE
Thor Agena Rocket 4.3 21:33:41 10° NNE 21:38:15 33° E 21:39:53 27° SE
Cosmos 44 Rocket 4.2 21:38:25 27° SE 21:38:52 27° ESE 21:42:52 10° ENE
Cosmos 1933 3.8 21:36:09 10° N 21:40:05 48° ENE 21:41:27 33° SE
Cosmos 1328 Rocket 3.9 21:36:14 10° N 21:40:27 51° ENE 21:42:06 32° SE
Cosmos 2056 Rocket 4.3 21:36:40 10° NNW 21:41:50 46° WSW 21:45:08 21° SSW
Cosmos 2369 Rocket 2.7 21:37:17 10° NNW 21:42:45 50° ENE 21:46:00 23° ESE
Cosmos 2341 Rocket 3.9 21:43:32 22° S 21:47:46 84° E 21:54:00 10° N
Cosmos 1766 Rocket 3.5 21:46:46 33° S 21:48:40 72° E 21:53:07 10° NNE
GP-B 3.9 21:44:36 10° NNE 21:48:44 36° E 21:50:03 29° ESE
DELTA 2 R/B (1) 4.4 21:49:29 10° WSW 21:54:13 29° SSW 21:54:58 28° S
APEX 2.9 21:55:59 10° NW 21:58:42 50° WSW 21:58:46 49° WSW
Cosmos 1727 Rocket 4.4 21:53:52 10° N 21:59:59 52° ENE 22:03:09 28° SE
Cosmos 2237 Rocket 4.3 21:59:35 10° WSW 22:04:24 28° NW 22:09:16 10° N
Cosmos 1151 Rocket 2.9 22:01:09 10° N 22:05:29 83° W 22:06:54 42° S
Cosmos 332 Rocket 3.8 22:00:47 10° NNW 22:05:35 73° WSW 22:07:25 37° S
Cosmos 1452 Rocket 3.5 22:02:56 10° NNW 22:08:12 73° WSW 22:10:25 35° S
Gbstr 26 Del rocket 3.2 22:06:16 10° W 22:09:57 60° NNW 22:13:53 10° ENE
Cosmos 1943 Rocket 2.2 22:05:43 10° NNW 22:11:24 76° WSW 22:13:51 35° SSE
Cosmos 405 3.3 22:09:37 10° N 22:13:05 50° ENE 22:13:30 47° ESE
Cosmos 1743 Rocket 4.1 22:14:29 37° ESE 22:15:19 42° E 22:19:27 10° NNE
Lacrosse 5 rocket 1.2 22:11:22 10° WNW 22:15:20 58° SW 22:15:49 53° S
ATLAS 2AS CENTAUR R/B 4.3 22:10:15 10° WNW 22:15:46 23° WSW 22:19:37 15° SSW
USA 215 3.2 22:10:40 10° ENE 22:17:12 66° SE 22:23:41 10° SW
ISS -3.8 22:14:05 10° WSW 22:17:27 85° NNW 22:20:50 10° ENE
Meteor 2-3 Rocket 3.7 22:15:35 32° S 22:18:18 81° E 22:24:05 10° NNE
Okean 3 Rocket 4.3 22:16:09 24° SW 22:18:31 49° WNW 22:22:48 10° N
IRIDIUM 104 4.3 22:16:22 36° S 22:18:33 83° E 22:23:47 10° N
EO 1 Del DPAF 3.2 22:15:03 10° NNE 22:18:48 64° ESE 22:19:17 56° SE
MOS 1-B Rocket 4.2 22:12:57 10° NNE 22:20:06 75° ESE 22:23:20 31° S
COSMOS 2455 3.1 22:15:33 10° NW 22:21:26 55° WSW 22:23:56 33° S
Cosmos 1633 2.5 22:22:50 59° ESE 22:23:04 61° E 22:26:38 10° NNE
Meteor 2-12 Rocket 4.4 22:21:01 28° SSW 22:24:24 82° W 22:30:36 10° N
RESURS DK-1 2.3 22:21:37 10° NNW 22:25:47 89° ENE 22:26:41 54° SSE
Cosmos 1606 3.9 22:23:41 10° NNW 22:27:16 35° W 22:28:23 29° SW
IRIDIUM 114 4.3 22:25:30 36° S 22:27:42 82° W 22:32:57 10° N
Cosmos 2263 4.2 22:22:18 10° NNW 22:28:06 79° ENE 22:30:38 35° SE
Lacrosse 5 3.2 22:31:30 23° ESE 22:31:30 23° ESE 22:34:40 10° ENE
Cosmos 1408 Rocket 3.7 22:30:56 39° SSW 22:32:29 68° W 22:36:56 10° N
IRIDIUM 103 4.5 22:34:39 35° SSW 22:36:51 69° W 22:42:06 10° N
CZ-4C R/B 2.9 22:29:41 10° NW 22:36:55 81° SW 22:41:24 30° SSE
Cosmos 1607 4.4 22:35:58 35° SSE 22:37:37 42° ESE 22:43:29 10° NE
Meteor 1-26 Rocket 4.5 22:31:46 10° NNW 22:37:39 66° W 22:40:08 35° SSW
Spot 4 4.0 22:37:24 41° SSW 22:38:53 63° WSW 22:43:38 10° NNW
Cosmos 1340 3.7 22:37:58 29° WSW 22:39:12 39° WNW 22:42:47 10° N
Cosmos 1943 3.2 22:38:07 38° S 22:40:15 68° ESE 22:45:53 10° NNE
Cosmos 2228 Rocket 3.2 22:35:54 10° N 22:40:29 71° E 22:41:37 49° SE
Nimbus 7 Rocket 4.4 22:35:03 10° NNE 22:40:56 67° ESE 22:43:13 38° S
Cosmos 494 Rocket 3.9 22:40:27 42° S 22:42:10 75° ESE 22:47:19 10° NNE
Cosmos 1500 Rocket 3.4 22:43:45 54° S 22:44:42 82° E 22:49:05 10° N
SL-4 R/B 3.9 22:51:02 11° NNE 22:51:02 11° NNE 22:51:09 10° NNE
USA 267 3.3 22:44:53 19° ESE 22:49:50 84° NE 22:56:25 10° NW
Meteor 1-10 Rocket 4.4 22:44:48 10° N 22:50:19 61° ENE 22:52:24 37° SE
SL-16 R/B 4.0 22:49:50 10° WSW 22:54:43 29° NW 22:59:39 10° N
Cosmos 1656 Rocket 3.5 22:49:32 10° NNW 22:55:00 88° ENE 22:56:55 42° SSE
Cosmos 1821 Rocket 3.9 22:56:55 39° S 22:59:19 75° E 23:05:24 10° NNE
Terra 4.4 23:02:12 10° W 23:02:51 10° W 23:03:29 10° WNW
Helios 1A 3.3 23:02:13 46° ESE 23:03:04 56° ENE 23:07:10 10° N
Cosmos 1805 Rocket 3.6 23:02:29 54° SE 23:03:08 62° E 23:07:28 10° NNE
Cosmos 1346 Rocket 3.9 23:02:13 30° WSW 23:03:22 37° WNW 23:07:03 10° N
Cosmos 2123 Rocket 4.3 23:00:33 10° N 23:06:39 57° ENE 23:09:20 33° SE
ALOS 2 2.8 23:07:53 50° SW 23:08:41 59° W 23:13:03 10° NNW
Cosmos 1782 3.7 23:06:35 10° NNW 23:10:16 37° W 23:10:44 35° WSW
SL-4 R/B 2.5 23:13:52 35° N 23:13:52 35° N 23:15:41 10° NNE
Meteor 1-27 Rocket 4.0 23:07:57 10° N 23:13:33 60° ENE 23:15:51 35° SE
Cosmos 1331 Rocket 4.5 23:13:58 10° NNW 23:19:04 48° WSW 23:20:22 40° SW
Cosmos 44 Rocket 4.1 23:17:04 19° WSW 23:20:10 47° NW 23:24:48 10° NNE
USA 32 4.1 23:23:45 45° SSE 23:25:18 71° E 23:30:34 10° N
Cosmos 2369 Rocket 3.3 23:21:46 10° NW 23:26:29 29° WSW 23:27:47 26° SW
Cosmos 1605 Rocket 4.4 23:27:20 34° SSE 23:29:49 52° E 23:35:51 10° NNE
Cosmos 1707 Rocket 3.5 23:27:00 10° N 23:31:29 85° E 23:32:17 59° SSE
Cosmos 1934 Rocket 3.9 23:31:25 40° S 23:33:50 83° E 23:40:11 10° N
Sich 1 2.9 23:33:33 61° SSW 23:34:17 84° W 23:38:41 10° N
CREW DRAGON DEMO-1 DEB 3.9 23:31:54 10° WNW 23:34:03 40° NW 23:34:03 40° NW
Cosmos 292 Rocket 3.7 23:33:22 10° NNW 23:38:10 74° WSW 23:39:09 54° S
Cosmos 1633 Rocket 3.1 23:43:36 56° SSE 23:44:21 69° E 23:48:46 10° NNE
Cosmos 1812 3.3 23:45:04 10° NNW 23:48:44 42° W 23:48:50 42° W
Resurs 1-4 Rocket 4.1 23:45:32 10° NE 23:48:51 17° E 23:51:17 13° ESE
Cosmos 1862 Rocket 3.7 23:48:57 10° N 23:53:25 70° E 23:54:30 49° SE
Cosmos 2251 Rocket 3.8 23:52:11 42° SSE 23:53:32 55° ESE 23:58:39 10° NNE
PSLV R/B 3.5 23:49:32 10° NNE 23:53:50 74° ESE 23:54:37 57° SSE
Cosmos 1862 4.4 23:53:19 31° W 23:54:05 34° WNW 23:57:45 10° N
Cosmos 1943 Rocket 4.3 23:52:16 10° WNW 23:54:07 12° W 23:55:22 11° WSW
ISS -2.2 23:51:20 10° WNW 23:54:31 37° N 23:57:41 10° ENE
